SBI1056 UWKD-UUDD

Flight info

Callsign SBI1056
Flight time N/A
Altitude 36000
Route APTAR T787 URAGO
Aircraft A319/M-SDE3FGHIRWY/LB1

Departure

Time 2026-04-29 14:06
Airport Kazan International Airport (UWKD)

Arrival

Time N/A
Airport Domodedovo International Airport (UUDD)
Time Latitude Longitude Altitude Speed Heading
2026-04-29 13:48 55.60558 49.29993 405 ft 0 kts 33°
2026-04-29 13:59 55.60551 49.29985 408 ft 3 kts 34°
2026-04-29 14:00 55.60541 49.29972 402 ft 3 kts 36°
2026-04-29 14:00 55.60526 49.29950 406 ft 2 kts 70°
2026-04-29 14:00 55.60523 49.29937 406 ft 2 kts 102°
2026-04-29 14:00 55.60529 49.29912 408 ft 2 kts 120°
2026-04-29 14:01 55.60532 49.29901 403 ft 2 kts 122°
2026-04-29 14:01 55.60538 49.29886 403 ft 0 kts 122°
2026-04-29 14:02 55.60534 49.29897 403 ft 3 kts 122°
2026-04-29 14:02 55.60520 49.29932 407 ft 5 kts 125°
2026-04-29 14:02 55.60496 49.29991 403 ft 7 kts 129°
2026-04-29 14:03 55.60446 49.29987 407 ft 9 kts 210°
2026-04-29 14:03 55.60388 49.29921 407 ft 11 kts 213°
2026-04-29 14:03 55.60312 49.29878 407 ft 13 kts 181°
2026-04-29 14:03 55.60221 49.29919 407 ft 15 kts 156°
2026-04-29 14:04 55.60125 49.30001 407 ft 17 kts 154°
2026-04-29 14:04 55.60021 49.30089 407 ft 14 kts 154°
2026-04-29 14:04 55.59931 49.30120 407 ft 12 kts 194°
2026-04-29 14:04 55.59864 49.30052 407 ft 11 kts 213°
2026-04-29 14:05 55.59828 49.29943 408 ft 11 kts 280°
2026-04-29 14:05 55.59862 49.29845 405 ft 0 kts 303°
2026-04-29 14:05 55.59862 49.29844 405 ft 0 kts 303°
2026-04-29 14:05 55.59916 49.29702 405 ft 47 kts 304°
2026-04-29 14:06 55.60249 49.28847 407 ft 119 kts 304°
2026-04-29 14:06 55.60821 49.27363 475 ft 164 kts 302°
2026-04-29 14:06 55.61451 49.25766 1239 ft 156 kts 296°
2026-04-29 14:06 55.61822 49.23943 1839 ft 166 kts 275°
2026-04-29 14:07 55.61754 49.21811 2312 ft 185 kts 251°
2026-04-29 14:07 55.61190 49.19613 2809 ft 209 kts 241°
2026-04-29 14:07 55.60441 49.17244 3381 ft 231 kts 240°
2026-04-29 14:07 55.59671 49.14730 4313 ft 238 kts 242°
2026-04-29 14:08 55.58923 49.12100 5371 ft 241 kts 244°
2026-04-29 14:08 55.58207 49.09402 6417 ft 244 kts 245°
2026-04-29 14:08 55.57516 49.06650 7407 ft 247 kts 246°
2026-04-29 14:08 55.56830 49.03816 7889 ft 252 kts 247°
2026-04-29 14:09 55.56157 49.00954 8034 ft 252 kts 248°
2026-04-29 14:09 55.55499 48.98092 8048 ft 251 kts 248°